Terminal Aerodrome Forecast
Issued by NWS

Home | Current Version | Previous Version | Graphics & Text | Print | Product List | Glossary On
Versions: 1 2 3 4 5 6 7 8 9 10 11 12 13 14 15 16 17
000
FTUS43 KMPX 230542
TAFAXN
TAF
KAXN 230542Z 2306/2406 21016KT P6SM OVC100
     FM231100 25013KT P6SM VCSH SCT030 OVC050
     FM231900 30010KT P6SM OVC020=

USA.gov is the U.S. government's official web portal to all federal, state and local government web resources and services.